When you browse on this site, cookies collect data to enhance your experience and personalize the content and advertising you see.
Visit our Privacy Policy to learn more. By continuing to use the site, you agree to this use of cookies and data.
  • In Hungary
  • List of Countries
  • For 7 days
  • Water Temperature
  • Satellite Maps
  • Weather Map
  • News
  • Weather Widgets
  • user-avatar
    Login

    Hourly Weather Tskhaltubo

    Today, 21 January, Monday

    Time Temperature Precipitation Wind Pressure Humidity
    00:00 +3°C° 0 mm 3 mps 750 mmHg 57%
    01:00 +3°C° 0 mm 3 mps 750 mmHg 56%
    02:00 +3°C° 0 mm 3 mps 750 mmHg 56%
    03:00 +3°C° 0 mm 3 mps 750 mmHg 55%
    04:00 +2°C° 0 mm 3 mps 750 mmHg 55%
    05:00 +2°C° 0 mm 3 mps 749 mmHg 55%
    06:00 +2°C° 0 mm 3 mps 749 mmHg 54%
    07:00 +3°C° 0 mm 3 mps 749 mmHg 53%
    08:00 +4°C° 0 mm 3 mps 749 mmHg 51%
    09:00 +4°C° 0 mm 3 mps 749 mmHg 50%
    10:00 +7°C° 0 mm 3 mps 748 mmHg 46%
    11:00 +8°C° 0 mm 4 mps 747 mmHg 42%
    12:00 +10°C° 0 mm 4 mps 747 mmHg 38%
    13:00 +10°C° 0 mm 3 mps 746 mmHg 39%
    14:00 +11°C° 0 mm 3 mps 746 mmHg 39%
    15:00 +11°C° 0 mm 3 mps 745 mmHg 39%
    16:00 +9°C° 0 mm 3 mps 746 mmHg 44%
    17:00 +8°C° 0 mm 2 mps 746 mmHg 49%
    18:00 +6°C° 0 mm 2 mps 747 mmHg 55%
    19:00 +6°C° 0 mm 2 mps 747 mmHg 55%
    20:00 +5°C° 0 mm 2 mps 747 mmHg 56%
    21:00 +5°C° 0 mm 2 mps 747 mmHg 57%
    22:00 +5°C° 0 mm 2 mps 747 mmHg 56%
    23:00 +4°C° 0 mm 2 mps 747 mmHg 56%

    Tomorrow, 22 January, Tuesday

    Time Temperature Precipitation Wind Pressure Humidity
    00:00 +4°C° 0 mm 2 mps 747 mmHg 55%
    01:00 +4°C° 0 mm 2 mps 747 mmHg 54%
    02:00 +4°C° 0 mm 2 mps 747 mmHg 54%
    03:00 +4°C° 0 mm 2 mps 747 mmHg 53%
    04:00 +4°C° 0 mm 2 mps 746 mmHg 53%
    05:00 +3°C° 0 mm 2 mps 746 mmHg 53%
    06:00 +4°C° 0 mm 1 mps 746 mmHg 53%
    07:00 +5°C° 0 mm 1 mps 746 mmHg 53%
    08:00 +5°C° 0 mm 1 mps 747 mmHg 53%
    09:00 +6°C° 0 mm 1 mps 747 mmHg 54%
    10:00 +6°C° 0.2 mm 1 mps 747 mmHg 55%
    11:00 +7°C° 0.2 mm 1 mps 747 mmHg 57%
    12:00 +7°C° 0.2 mm 1 mps 746 mmHg 59%
    13:00 +7°C° 0.5 mm 1 mps 746 mmHg 63%
    14:00 +7°C° 0.5 mm 1 mps 746 mmHg 68%
    15:00 +6°C° 0.5 mm 1 mps 746 mmHg 73%
    16:00 +6°C° 0.4 mm 1 mps 746 mmHg 76%
    17:00 +5°C° 0.4 mm 0 mps 747 mmHg 80%
    18:00 +4°C° 0.4 mm 0 mps 747 mmHg 83%
    19:00 +4°C° 0.2 mm 0 mps 748 mmHg 83%
    20:00 +4°C° 0.2 mm 0 mps 748 mmHg 83%
    21:00 +5°C° 0.2 mm 1 mps 748 mmHg 84%
    22:00 +5°C° 0.1 mm 1 mps 748 mmHg 82%
    23:00 +5°C° 0.1 mm 1 mps 748 mmHg 81%

    Day after tomorrow, 23 January, Wednesday

    Time Temperature Precipitation Wind Pressure Humidity
    00:00 +5°C° 0.1 mm 1 mps 748 mmHg 80%
    01:00 +3°C° 0 mm 2 mps 748 mmHg 78%
    02:00 +3°C° 0 mm 2 mps 748 mmHg 75%
    03:00 +3°C° 0 mm 2 mps 748 mmHg 73%
    04:00 +3°C° 0 mm 2 mps 748 mmHg 71%
    05:00 +3°C° 0 mm 2 mps 747 mmHg 68%
    06:00 +2°C° 0 mm 3 mps 747 mmHg 66%
    07:00 +2°C° 0 mm 3 mps 747 mmHg 63%
    08:00 +3°C° 0 mm 3 mps 748 mmHg 61%
    09:00 +4°C° 0 mm 3 mps 748 mmHg 59%
    10:00 +5°C° 0 mm 3 mps 747 mmHg 56%
    11:00 +8°C° 0 mm 3 mps 747 mmHg 53%
    12:00 +10°C° 0 mm 4 mps 746 mmHg 50%
    13:00 +10°C° 0 mm 4 mps 746 mmHg 50%
    14:00 +10°C° 0 mm 4 mps 746 mmHg 50%
    15:00 +10°C° 0 mm 4 mps 746 mmHg 50%
    16:00 +9°C° 0 mm 3 mps 746 mmHg 53%
    17:00 +7°C° 0 mm 3 mps 747 mmHg 56%
    18:00 +5°C° 0 mm 3 mps 747 mmHg 60%
    19:00 +5°C° 0 mm 4 mps 748 mmHg 58%
    20:00 +4°C° 0 mm 4 mps 748 mmHg 57%
    21:00 +4°C° 0 mm 4 mps 749 mmHg 55%
    22:00 +4°C° 0 mm 4 mps 749 mmHg 54%
    23:00 +4°C° 0 mm 4 mps 749 mmHg 54%

    24 January, Thursday

    Time Temperature Precipitation Wind Pressure Humidity
    00:00 +3°C° 0 mm 4 mps 749 mmHg 54%
    01:00 +3°C° 0 mm 4 mps 749 mmHg 54%
    02:00 +3°C° 0 mm 4 mps 749 mmHg 54%
    03:00 +3°C° 0 mm 4 mps 748 mmHg 54%
    04:00 +3°C° 0 mm 4 mps 748 mmHg 54%
    05:00 +3°C° 0 mm 4 mps 748 mmHg 54%
    06:00 +3°C° 0 mm 4 mps 748 mmHg 54%
    07:00 +4°C° 0 mm 4 mps 748 mmHg 53%
    08:00 +4°C° 0 mm 4 mps 748 mmHg 52%
    09:00 +5°C° 0 mm 4 mps 747 mmHg 50%
    10:00 +7°C° 0 mm 4 mps 747 mmHg 47%
    11:00 +10°C° 0 mm 4 mps 746 mmHg 45%
    12:00 +10°C° 0 mm 5 mps 745 mmHg 42%
    13:00 +12°C° 0 mm 4 mps 745 mmHg 42%
    14:00 +12°C° 0 mm 4 mps 744 mmHg 42%
    15:00 +12°C° 0 mm 4 mps 744 mmHg 42%
    16:00 +11°C° 0 mm 4 mps 744 mmHg 45%
    17:00 +10°C° 0 mm 4 mps 744 mmHg 48%
    18:00 +8°C° 0 mm 4 mps 745 mmHg 50%
    19:00 +7°C° 0 mm 4 mps 744 mmHg 49%
    20:00 +7°C° 0 mm 4 mps 744 mmHg 47%
    21:00 +7°C° 0 mm 4 mps 744 mmHg 46%
    22:00 +6°C° 0 mm 4 mps 744 mmHg 47%
    23:00 +6°C° 0 mm 4 mps 744 mmHg 47%

    25 January, Friday

    Time Temperature Precipitation Wind Pressure Humidity
    00:00 +6°C° 0 mm 4 mps 744 mmHg 48%
    01:00 +6°C° 0 mm 4 mps 744 mmHg 48%
    02:00 +6°C° 0 mm 4 mps 744 mmHg 48%
    03:00 +6°C° 0 mm 4 mps 744 mmHg 48%
    04:00 +6°C° 0 mm 4 mps 743 mmHg 50%
    05:00 +7°C° 0 mm 3 mps 743 mmHg 51%
    06:00 +7°C° 0 mm 3 mps 743 mmHg 52%
    07:00 +7°C° 0.1 mm 3 mps 743 mmHg 53%
    08:00 +7°C° 0.1 mm 3 mps 743 mmHg 54%
    09:00 +7°C° 0.1 mm 3 mps 743 mmHg 55%
    10:00 +7°C° 0.2 mm 4 mps 743 mmHg 54%
    11:00 +8°C° 0.2 mm 4 mps 742 mmHg 53%
    12:00 +10°C° 0.2 mm 4 mps 742 mmHg 52%
    13:00 +10°C° 0.1 mm 4 mps 742 mmHg 53%
    14:00 +10°C° 0.1 mm 3 mps 741 mmHg 55%
    15:00 +11°C° 0.1 mm 3 mps 741 mmHg 57%
    16:00 +10°C° 0.1 mm 3 mps 742 mmHg 60%
    17:00 +9°C° 0.1 mm 2 mps 742 mmHg 63%
    18:00 +8°C° 0.1 mm 2 mps 742 mmHg 67%
    19:00 +8°C° 0.1 mm 2 mps 743 mmHg 67%
    20:00 +8°C° 0.1 mm 2 mps 743 mmHg 68%
    21:00 +8°C° 0.1 mm 3 mps 743 mmHg 68%
    22:00 +7°C° 0 mm 3 mps 743 mmHg 67%
    23:00 +7°C° 0 mm 3 mps 742 mmHg 66%

    26 January, Saturday

    Time Temperature Precipitation Wind Pressure Humidity
    00:00 +7°C° 0 mm 3 mps 742 mmHg 66%
    01:00 +7°C° 0 mm 3 mps 742 mmHg 65%
    02:00 +7°C° 0 mm 3 mps 742 mmHg 63%
    03:00 +7°C° 0 mm 3 mps 742 mmHg 62%
    04:00 +7°C° 0 mm 3 mps 742 mmHg 62%
    05:00 +7°C° 0 mm 3 mps 741 mmHg 61%
    06:00 +7°C° 0 mm 3 mps 741 mmHg 60%
    07:00 +7°C° 0 mm 3 mps 741 mmHg 59%
    08:00 +8°C° 0 mm 3 mps 741 mmHg 57%
    09:00 +8°C° 0 mm 3 mps 741 mmHg 56%
    10:00 +10°C° 0 mm 3 mps 740 mmHg 53%
    11:00 +11°C° 0 mm 3 mps 740 mmHg 49%
    12:00 +13°C° 0 mm 3 mps 739 mmHg 46%
    13:00 +13°C° 0 mm 3 mps 739 mmHg 46%
    14:00 +13°C° 0 mm 3 mps 739 mmHg 46%
    15:00 +13°C° 0 mm 3 mps 739 mmHg 47%
    16:00 +12°C° 0 mm 3 mps 739 mmHg 50%
    17:00 +11°C° 0 mm 3 mps 739 mmHg 53%
    18:00 +10°C° 0 mm 3 mps 739 mmHg 57%
    19:00 +9°C° 0 mm 3 mps 739 mmHg 56%
    20:00 +9°C° 0 mm 3 mps 740 mmHg 56%
    21:00 +7°C° 0 mm 4 mps 740 mmHg 56%
    22:00 +7°C° 0.1 mm 4 mps 739 mmHg 57%
    23:00 +7°C° 0.1 mm 4 mps 739 mmHg 58%
    Show more